Regional Weather Roundup
Issued by NWS Spokane, WA

Home | Current Version | Previous Version | Text Only | Print | Product List | Glossary On
Versions: 1 2 3 4 5 6 7 8 9 10 11 12 13 14 15 16 17 18 19 20 21 22 23 24 25 26 27 28 29 30 31 32 33 34 35 36 37 38 39 40 41 42 43 44 45 46 47 48 49 50
000
NZUS01 KOTX 252100
RWROTX
EASTERN WASHINGTON/NORTHERN IDAHO ROUNDUP
NATIONAL WEATHER SERVICE, SPOKANE WA
100 PM PST SUN JAN 25 2015

Note: "fair" indicated few or no clouds below 12,000 feet with no
significant weather and/or obstructions to visibility.

...NORTHEAST WASHINGTON AND NORTHERN IDAHO PANHANDLE...

CITY           SKY/WX    TMP DP  RH WIND       PRES   REMARKS
SPOKANE INTL   PTSUNNY   53  45  74 SW8       30.20F
SPOKANE DOWNTO PTSUNNY   55  43  63 CALM      30.21F
COEUR D ALENE  PTSUNNY   54  45  71 S8        30.20F
DEER PARK      FOG       44  43  96 CALM      30.22F VSB 1/4

...SOUTHEAST WASHINGTON AND SOUTHERN IDAHO PANHANDLE...

CITY           SKY/WX    TMP DP  RH WIND       PRES   REMARKS
WALLA WALLA    CLOUDY    40  38  93 CALM      30.20F FOG
PULLMAN/MOSCOW MOSUNNY   53  42  66 SE13      30.25F
LOWELL           N/A     44  39  82 N5        30.34F

...COLUMBIA BASIN...

CITY           SKY/WX    TMP DP  RH WIND       PRES   REMARKS
EPHRATA        CLOUDY    40  37  89 NW9       30.21F
MOSES LAKE     CLOUDY    38  37  97 N6        30.23F FOG
TRI CITIES     CLOUDY    39  39 100 W3        30.25F FOG
HERMISTON      MOSUNNY   48  39  71 N6        30.19F
PENDLETON      MOSUNNY   58  46  64 NW9       30.16F

...EAST SLOPES CASCADES...

CITY           SKY/WX    TMP DP  RH WIND       PRES   REMARKS
THE DALLES     CLOUDY    47  45  93 CALM      30.18F
YAKIMA         CLOUDY    41  37  86 VRB3      30.20F FOG
ELLENSBURG     FOG       43  40  89 CALM      30.19F VSB 1/2
WENATCHEE      CLOUDY    36  34  92 CALM      30.22F FOG
OMAK           CLOUDY    37  36  96 CALM      30.24S FOG

...SOUTHERN BRITISH COLUMBIA...

CITY           SKY/WX    TMP DP  RH WIND       PRES   REMARKS

...WESTERN MONTANA...

CITY           SKY/WX    TMP DP  RH WIND       PRES   REMARKS
MISSOULA       CLOUDY    35  34  96 CALM      30.20F

...NEIGHBORING CITIES...

CITY           SKY/WX    TMP DP  RH WIND       PRES   REMARKS
SEATTLE        PTSUNNY   59  49  69 CALM      30.12F



USA.gov is the U.S. government's official web portal to all federal, state and local government web resources and services.